COSMOS 1814

Satellite information

Favourite Embed

Satellite Type and Status

PAYLOADIN ORBIT

Key statistics

Satellite COSMOS 1814 at a glance.

Uptime

13986

Days in orbit

Revolutions

≈ 14.4

Per day

Orbit

LEO

Low Earth Orbit

Inclination

74.1

Latest

Satellite identification and parameters

Extended collection of information and parameters for COSMOS 1814.

Object identification

Identified? True

Debris? False

Object name: COSMOS 1814

International designator: 1987-006A

Object number (NORAD): 17303

Object ID (CCSDS): 17303

Country: COMMONWEALTH OF INDEPENDENT STATES (CIS)

Current information (Y/N): Y

RCS size: LARGE

Orbital parameters

Period: 100.29 minutes

Inclination: 74.0545 deg

SMA: 7150.437 km

Apoapsis: 789.371 km

Periapsis: 755.233 km

RAAN: 284.3858 deg

Eccentricy: 0.0023871

Argument of periapsis: 125.818 deg

Mean anomaly: 234.5196 deg

Mean motion: 14.35832842 rev/day

Mean motion (dot): 0.00000287 rev/day2

B* drag term: 0.00010774 1/REarth

Two-line elements (TLE)

Creation date: May 5, 2025, 10:46 p.m.

Reference frame: TEME

Reference center: EARTH

Epoch: May 5, 2025, 8:45 p.m. UTC

TLE line 0: 0 COSMOS 1814

TLE line 1: 1 17303U 87006A 25125.86467900 .00000287 00000-0 10774-3 0 9999

TLE line 2: 2 17303 74.0545 284.3858 0023871 125.8180 234.5196 14.35832842 4065

Live tracking on map

Real-time ground track for satellite COSMOS 1814.

In-orbit conjunctions

A list of the most updated potential collisions computed for object COSMOS 1814.

Target Orbit TCA Probability of collision Miss distance Type
FENGYUN 1C DEB SSO 2025-04-22 21:18:19 0.0004007316 174.0 (m) DEBRIS
NOAA 16 DEB SSO 2025-02-05 20:50:29 0.0003930074 51.0 (m) DEBRIS
CZ-6A DEB LEO 2025-01-02 03:31:54 0.000212275 640.0 (m) DEBRIS
CZ-6A DEB SSO 2024-12-08 13:19:55 0.0001126926 794.0 (m) DEBRIS
NOAA 16 DEB SSO 2024-10-11 09:28:19 0.0002222988 421.0 (m) DEBRIS

Associated space launch

Military communications satellite

COSMOS 1814 was lifted into orbit during the mission ‘Kosmos-3M | Strela-2M 41’, on board a Kosmos-3M space rocket.

The launch took place on Jan. 21, 1987, 9:10 a.m. from 132/2.

For more information about the launch, click the button.

Launch to space Kosmos-3M | Strela-2M 41
Kosmos-3M | Strela-2M 41

Agency: N/A

Status: Launch Successful

Launch date: Jan. 21, 1987, 9:10 a.m. UTC

Rocket: Kosmos-3M

Launch pad: 132/2

Location: Plesetsk Cosmodrome, Russian Federation

...

Latest news about this satellite

There are no fresh news available about this satellite. Check back as we update our databases every day.


Newsletter sign-up

Weekly statistics, charts and insights to help you stay on top of the space industry.